Terminal Aerodrome Forecast
Issued by NWS Anchorage, AK

Home | Current Version | Previous Version | Text Only | Print | Product List | Glossary On
Versions: 1 2 3 4 5 6 7 8 9 10 11 12 13 14 15 16 17 18 19 20 21 22 23 24 25 26 27 28 29 30 31 32 33 34 35 36 37 38 39 40 41 42 43 44
000
FTAK31 PANC 211708 AAE
TAFANC
TAF AMD
PANC 211708Z 2117/2218 00000KT 3SM BR BKN004 OVC025
     FM211900 VRB04KT 5SM BR BKN008 OVC025
     FM212000 29007KT P6SM FEW008 SCT060
     FM220800 VRB06KT 4SM BR SCT010 SCT050 BKN120=

USA.gov is the U.S. government's official web portal to all federal, state and local government web resources and services.